[[[{"header":{"parameterUnit":"kt","parameterCategory":2,"dx":1,"dy":1,"la1":30.253999710083008,"la2":30.299108505249023,"lo1":-89.0895004272461,"lo2":-89.04439544677734,"nx":28,"ny":28,"refTime":"2022-10-05T21:00:00:Z","depth":"0","parameterNumber":2,"parameterNumberName":"U-component_of_CURRENTS"},"data":[0.575,0.5651,0.5678,0.545,0.5433,0.5346,0.5376,0.5482,0.5758,0.611,0.651,0.6961,0.7722,0.8439,0.8665,0.8627,0.8054,0.7753,0.7608,0.851,0.8579,0.8644,0.843,0.7981,0.7979,0.619,0.6176,0.6165,0.5935,0.5952,0.5953,0.5953,0.5864,0.6014,0.6113,0.613,0.6197,0.6619,0.6891,0.7651,0.8262,0.8967,0.9625,0.9519,0.9264,0.9258,0.8606,0.8497,0.9725,0.9544,0.9325,0.9326,0.9326,0.9326,0.9327,0.9327,0.6284,0.6249,0.6359,0.6348,0.6382,0.6389,0.6375,0.6581,0.6673,0.693,0.7336,0.7722,0.8564,0.9625,0.9937,1.0223,1.0075,1.0131,0.9997,0.9602,0.9221,1.0384,1.055,1.0553,1.0555,1.0557,1.0558,0,0.6568,0.6629,0.6722,0.6747,0.6785,0.6837,0.6958,0.6973,0.7315,0.7448,0.7706,0.798,0.8774,0.9301,1.0058,1.045,1.0232,1.0749,1.0436,0.9944,0.9309,0.9035,1.0302,1.0627,1.063,1.0632,1.0634,1.0635,0.687,0.6895,0.7104,0.7119,0.7212,0.7271,0.7311,0.7579,0.7656,0.7993,0.8037,0.8451,0.8768,0.9527,1.0103,1.0707,1.0433,1.0803,1.0772,1.0334,1.0099,0.9631,0.9424,1.0666,1.0662,1.0659,1.0657,0,0.7015,0.7239,0.7309,0.7573,0.7619,0.7613,0.7783,0.7821,0.8028,0.813,0.8191,0.8599,0.9025,0.9505,1.0088,1.0344,1.0498,1.0905,1.0587,1.0512,1.0264,1.0077,0.983,0.9604,1.1099,1.1098,1.1098,0,0.7329,0.7366,0.7666,0.7704,0.7738,0.7984,0.8005,0.8158,0.8348,0.842,0.8723,0.8846,0.9332,0.9651,1.0002,1.0402,1.0502,1.0678,1.0639,1.0433,1.0393,0.9987,0.9764,1.0895,1.0892,1.089,1.0889,0,0.7429,0.7693,0.7782,0.7861,0.8112,0.8168,0.8265,0.8464,0.8509,0.8737,0.8752,0.9168,0.9246,0.9663,0.9963,0.9925,1.0468,1.039,1.052,1.0504,1.0243,1.0186,1.0412,1.0886,1.0885,1.0884,1.0883,0,0.7661,0.7817,0.7944,0.8162,0.8182,0.8252,0.8376,0.8477,0.8695,0.8733,0.8964,0.9006,0.939,0.9377,0.9893,0.9724,0.9928,1.0065,1.0075,0.9766,0.9518,0.9499,1.0056,0.9718,1.0023,1.0017,1.0012,0,0.7706,0.7896,0.8048,0.8167,0.8222,0.8321,0.8448,0.8546,0.8594,0.8637,0.8887,0.8937,0.9041,0.9043,0.9368,0.9429,0.975,0.9526,0.9553,0.9552,0.9337,0.9929,0.9733,0.9963,0.9931,0.994,0.9946,0,0.7698,0.7994,0.7998,0.8054,0.8186,0.8143,0.8358,0.8382,0.84,0.8509,0.8529,0.889,0.8828,0.8868,0.8891,0.9145,0.9598,0.9005,0.9002,0.9045,0.996,0.9825,0.9866,0.9581,0.9592,0.9601,0.9882,0,0.7858,0.7935,0.7997,0.8067,0.808,0.8096,0.8066,0.8116,0.8043,0.7942,0.8177,0.8187,0.8192,0.8391,0.8301,0.8746,0.8614,0.8502,0.821,0.8662,0.8719,0.8773,0.7991,0.7981,0.7972,0.7965,0,0,0.7749,0.7803,0.7787,0.7863,0.7819,0.7676,0.7683,0.765,0.7439,0.7436,0.7336,0.7459,0.7484,0.7768,0.793,0.7949,0.7961,0.7857,0.8443,0.8498,0.8547,0.8626,0.8687,0.7949,0.7946,0.7943,0.794,0,0.7728,0.7742,0.7803,0.7776,0.7674,0.7516,0.7558,0.7281,0.7192,0.7236,0.7044,0.7195,0.7229,0.726,0.7293,0.7791,0.7642,0.7885,0.8177,0.8364,0.843,0.8488,0.858,0.8641,0.7919,0.792,0.7921,0,0.763,0.7575,0.7567,0.7466,0.7303,0.7275,0.6946,0.6873,0.6856,0.6527,0.6529,0.6524,0.649,0.6721,0.6837,0.6686,0.7293,0.7106,0.7153,0.7092,0.7263,0.7343,0.7414,0.6484,0.648,0.6477,0,0,0.7602,0.7658,0.741,0.7407,0.7373,0.7033,0.6924,0.6727,0.6542,0.6461,0.6322,0.6282,0.6369,0.6417,0.6443,0.6702,0.6632,0.6941,0.7008,0.7065,0.7038,0.7221,0.73,0.6463,0.6462,0.6462,0,0,0.7488,0.7307,0.7214,0.7197,0.7044,0.6626,0.6594,0.6389,0.6262,0.6249,0.6,0.5978,0.622,0.6136,0.5956,0.643,0.614,0.6176,0.6496,0.6578,0.6644,0.6586,0.5689,0,0,0,0,0,0.7303,0.737,0.7294,0.7251,0.6886,0.672,0.6653,0.6289,0.6122,0.6148,0.599,0.5868,0.5983,0.5815,0.5828,0.6148,0.6277,0.631,0.6341,0.6814,0.6902,0.6976,0,0,0,0,0,0,0.7284,0.7241,0.7286,0.6902,0.6812,0.6711,0.6337,0.6237,0.6111,0.6062,0.5882,0.586,0.5683,0.5801,0.5814,0.6125,0.5684,0.629,0.6318,0.6343,0.6844,0.6916,0.6978,0,0,0,0,0,0.7267,0.7231,0.6777,0.6889,0.6813,0.636,0.6331,0.6245,0.6135,0.5905,0.5862,0.5881,0.5689,0.5693,0.5808,0.6125,0.5675,0.568,0.6308,0.633,0.635,0.6879,0,0,0,0,0,0,0.7253,0.71,0.6748,0.6704,0.6844,0.6355,0.6281,0.6255,0.5985,0.5932,0.5898,0.5866,0.5695,0.5697,0.5701,0.6138,0.5666,0.5672,0.5675,0.6325,0.6342,0.6357,0,0,0,0,0,0,0.7116,0.7069,0.6725,0.6689,0.6637,0.6354,0.6289,0.6376,0.6003,0.5996,0.5953,0.5891,0.5838,0.5701,0.5703,0.5835,0.566,0.5666,0.5669,0.5671,0.6339,0.6352,0,0,0,0,0,0,0.7086,0.7044,0.6697,0.6658,0.6611,0.6085,0.6435,0.6168,0.5696,0.6025,0.5676,0.5667,0.586,0.5846,0.5706,0.5837,0.5835,0.5661,0.5664,0.5667,0.5668,0,0,0,0,0,0,0,0.7061,0.747,0.702,0.6631,0.659,0.6304,0.6291,0.6277,0.5694,0.5686,0.5678,0.5671,0.5631,0.5637,0.5642,0.5839,0,0,0.566,0.5663,0,0,0,0,0,0,0,0,0.7474,0.7471,0.7019,0.701,0.7002,0.6302,0.6291,0.628,0.5693,0.5686,0.568,0.5674,0.5632,0.5637,0.5642,0,0,0,0,0,0,0,0,0,0,0,0,0,0,0,0.7018,0.7011,0,0.63,0.6291,0.6283,0.5692,0.5687,0.5681,0.5676,0.5634,0.5637,0.5641,0,0,0,0,0,0,0,0,0,0,0,0,0,0,0,0,0,0,0,0,0,0,0,0,0,0,0,0,0,0,0,0,0,0,0,0,0,0,0,0,0,0,0,0,0,0,0,0,0,0,0,0,0,0,0,0,0,0,0,0,0,0,0,0,0,0,0,0,0]}],[{"header":{"parameterUnit":"kt","parameterCategory":2,"dx":1,"dy":1,"la1":30.253999710083008,"la2":30.299108505249023,"lo1":-89.0895004272461,"lo2":-89.04439544677734,"nx":28,"ny":28,"refTime":"2022-10-05T21:00:00:Z","depth":"0","parameterNumber":3,"parameterNumberName":"V-component_of_CURRENTS"},"data":[0.0933,0.121,0.1361,0.1932,0.2214,0.2724,0.3022,0.3447,0.3903,0.4642,0.5106,0.5488,0.4933,0.2231,0.0277,-0.0197,-0.081,-0.0946,-0.1277,-0.0535,-0.0434,-0.0338,-0.0446,-0.1315,-0.1317,-0.2201,-0.2211,-0.2219,0.0816,0.0999,0.1281,0.1683,0.2029,0.2176,0.2685,0.3005,0.349,0.403,0.4411,0.4619,0.3879,0.3116,0.1762,0.0833,0.0615,0.0343,0.0282,0.0174,0.1266,0.121,0.068,0.0681,0.0681,0.0682,0.0682,0.0683,0.0659,0.0809,0.1066,0.1387,0.1695,0.2087,0.2389,0.2759,0.3193,0.377,0.3865,0.4313,0.3928,0.3405,0.2856,0.1816,0.1946,0.1556,0.1356,0.1348,0.1078,0.2097,0.1968,0.1968,0.1969,0.1969,0.1969,0,0.057,0.0649,0.0871,0.119,0.1471,0.1815,0.2194,0.2418,0.2856,0.3165,0.3583,0.3813,0.3733,0.3578,0.3129,0.2909,0.2329,0.2588,0.2109,0.1807,0.1531,0.1216,0.2478,0.2603,0.2608,0.2611,0.2613,0.2615,0.0424,0.0564,0.0899,0.1075,0.1228,0.1567,0.1844,0.2191,0.2495,0.2993,0.3227,0.344,0.3714,0.36,0.3326,0.3067,0.2773,0.2708,0.2716,0.2063,0.1712,0.162,0.1428,0.2659,0.2654,0.2649,0.2645,0,0.0353,0.0485,0.0773,0.1107,0.123,0.1468,0.1881,0.2189,0.247,0.291,0.303,0.3386,0.3506,0.351,0.3575,0.3364,0.3009,0.3156,0.298,0.2847,0.2041,0.1803,0.1646,0.141,0.2775,0.2769,0.2764,0,0.0276,0.0481,0.0695,0.0839,0.1191,0.1389,0.1795,0.2053,0.2434,0.2787,0.2985,0.3282,0.3425,0.3515,0.3416,0.3286,0.3501,0.3129,0.3007,0.2981,0.2938,0.2502,0.2249,0.3523,0.3525,0.3526,0.3527,0,0.0097,0.0403,0.0647,0.0754,0.1099,0.1306,0.1515,0.1917,0.2176,0.2591,0.2761,0.3161,0.3328,0.3387,0.3329,0.3268,0.3442,0.3351,0.3006,0.297,0.2942,0.2889,0.2714,0.3529,0.3529,0.353,0.353,0,0.0008,0.0147,0.0454,0.0766,0.0851,0.1061,0.1487,0.1746,0.2164,0.2305,0.2646,0.2751,0.3157,0.299,0.3258,0.3151,0.3051,0.303,0.3021,0.2758,0.2449,0.2199,0.2501,0.2011,0.2674,0.267,0.2667,0,-0.0191,0.0059,0.012,0.0447,0.0604,0.0715,0.1015,0.1287,0.1478,0.1796,0.2078,0.2407,0.2376,0.2511,0.2714,0.2771,0.2878,0.2796,0.2659,0.2654,0.2295,0.2635,0.2605,0.2452,0.2618,0.2623,0.2627,0,-0.0379,-0.022,-0.0196,-0.0081,0.0086,0.0225,0.0532,0.0841,0.1077,0.1275,0.1632,0.2095,0.2112,0.2315,0.2415,0.2594,0.2762,0.2394,0.2396,0.2203,0.286,0.2584,0.2587,0.2733,0.2744,0.2752,0.2588,0,-0.0484,-0.0402,-0.0331,-0.0213,-0.0095,0.0052,0.0197,0.0351,0.0427,0.0579,0.1009,0.121,0.157,0.1701,0.1741,0.2205,0.1986,0.1965,0.1808,0.2138,0.2004,0.2036,0.1603,0.1599,0.1596,0.1593,0,0,-0.0702,-0.0607,-0.0661,-0.0545,-0.0434,-0.0458,-0.0275,-0.0146,0.0053,0.0214,0.0113,0.0707,0.0858,0.1395,0.1542,0.1581,0.1502,0.1552,0.1985,0.2029,0.2069,0.196,0.1994,0.1587,0.1586,0.1585,0.1583,0,-0.0754,-0.0796,-0.0726,-0.0653,-0.0578,-0.0505,-0.0475,-0.0349,-0.0255,-0.0007,0.0076,0.0344,0.0631,0.0909,0.1076,0.148,0.1342,0.1528,0.1798,0.1948,0.1996,0.2038,0.194,0.1973,0.1575,0.1576,0.1576,0,-0.0899,-0.089,-0.0867,-0.0793,-0.0737,-0.0585,-0.0665,-0.055,-0.0369,-0.0403,-0.0122,-0.0007,0.0228,0.0564,0.071,0.0642,0.1155,0.1047,0.1072,0.1142,0.1289,0.1347,0.1398,0.0715,0.0712,0.0709,0,0,-0.0952,-0.0933,-0.0868,-0.0798,-0.0768,-0.0697,-0.0634,-0.0601,-0.0475,-0.0426,-0.0309,-0.012,0.0126,0.0251,0.0436,0.0724,0.0702,0.0937,0.0978,0.1011,0.1096,0.1253,0.1311,0.0696,0.0696,0.0695,0,0,-0.0943,-0.0914,-0.0952,-0.087,-0.0789,-0.0669,-0.0598,-0.0583,-0.045,-0.0451,-0.0365,-0.0327,-0.0038,0.0034,-0.0149,0.0449,0.0292,0.033,0.0381,0.0432,0.0473,0.0521,-0.019,0,0,0,0,0,-0.0992,-0.0925,-0.0962,-0.0944,-0.0821,-0.0672,-0.0647,-0.0597,-0.063,-0.057,-0.0456,-0.0471,0.0005,-0.0158,-0.0117,0.0119,0.0529,0.0558,0.0586,0.072,0.0774,0.0819,0,0,0,0,0,0,-0.0985,-0.0967,-0.0961,-0.0852,-0.0822,-0.0676,-0.0719,-0.0702,-0.0634,-0.0635,-0.0489,-0.0466,-0.0405,-0.0178,-0.0141,0.0086,-0.0202,0.054,0.0565,0.0588,0.0738,0.0783,0.082,0,0,0,0,0,-0.0978,-0.0963,-0.08,-0.0849,-0.0823,-0.0736,-0.0722,-0.0709,-0.0656,-0.053,-0.0509,-0.0624,-0.0406,-0.0369,-0.0155,0.0071,-0.0228,-0.0214,0.0557,0.0576,0.0594,0.076,0,0,0,0,0,0,-0.0973,-0.0934,-0.0792,-0.0778,-0.0885,-0.0741,-0.0726,-0.0715,-0.0554,-0.0533,-0.0661,-0.0663,-0.0404,-0.0376,-0.0348,0.0068,-0.0248,-0.0234,-0.0226,0.0572,0.0587,0.0601,0,0,0,0,0,0,-0.0941,-0.0924,-0.0785,-0.0834,-0.0825,-0.0746,-0.0733,-0.058,-0.055,-0.0693,-0.0691,-0.0663,-0.0431,-0.038,-0.0358,-0.0122,-0.0264,-0.0251,-0.0242,-0.0236,0.0584,0.0597,0,0,0,0,0,0,-0.0931,-0.0917,-0.0837,-0.083,-0.0823,-0.0667,-0.0605,-0.0476,-0.0622,-0.0699,-0.063,-0.0634,-0.0434,-0.0412,-0.0366,-0.0139,-0.0126,-0.0264,-0.0255,-0.0248,-0.0244,0,0,0,0,0,0,0,-0.0923,-0.1056,-0.0871,-0.0828,-0.0822,-0.0652,-0.0648,-0.0645,-0.0623,-0.0626,-0.063,-0.0633,-0.034,-0.0325,-0.0311,-0.0153,0,0,-0.0265,-0.0259,0,0,0,0,0,0,0,0,-0.1058,-0.1057,-0.0871,-0.0868,-0.0865,-0.0651,-0.0648,-0.0645,-0.0624,-0.0626,-0.0629,-0.0631,-0.0336,-0.0324,-0.0312,0,0,0,0,0,0,0,0,0,0,0,0,0,0,0,-0.087,-0.0868,0,-0.0651,-0.0648,-0.0646,-0.0624,-0.0626,-0.0628,-0.063,-0.0333,-0.0323,-0.0313,0,0,0,0,0,0,0,0,0,0,0,0,0,0,0,0,0,0,0,0,0,0,0,0,0,0,0,0,0,0,0,0,0,0,0,0,0,0,0,0,0,0,0,0,0,0,0,0,0,0,0,0,0,0,0,0,0,0,0,0,0,0,0,0,0,0,0,0,0]}]],[[{"header":{"parameterUnit":"kt","parameterCategory":2,"dx":1,"dy":1,"la1":30.253999710083008,"la2":30.299108505249023,"lo1":-89.0895004272461,"lo2":-89.04439544677734,"nx":28,"ny":28,"refTime":"2022-10-05T21:00:00:Z","depth":"2","parameterNumber":2,"parameterNumberName":"U-component_of_CURRENTS"},"data":[0.3035,0.3062,0.312,0.3166,0.3287,0.3357,0.3453,0.3528,0.3612,0.3456,0.3369,0.3543,0.3797,0.3063,0.3003,0.2845,0.3286,0.2718,0.4045,0.415,0.4257,0.4551,0.4217,0,0,0,0,0,0.3106,0.3181,0.3272,0.3446,0.3519,0.3699,0.3928,0.3992,0.4193,0.4366,0.4587,0.4063,0.3971,0.4214,0.3757,0.3626,0.3618,0.3615,0.3615,0.3733,0.3842,0.3548,0.2663,0.266,0.2657,0.2655,0,0,0.3257,0.3297,0.3469,0.3624,0.3776,0.392,0.4021,0.4324,0.4558,0.4856,0.5255,0.5364,0.5387,0.5059,0.5025,0.4922,0.5258,0.5004,0.505,0.5111,0.4876,0.4657,0.4344,0.4352,0.4359,0.4365,0.437,0,0.3428,0.3536,0.3655,0.3846,0.4007,0.4178,0.4463,0.4575,0.5075,0.5302,0.5688,0.5939,0.6177,0.6006,0.6012,0.5959,0.6089,0.5843,0.6919,0.5507,0.5297,0.5248,0.5284,0.515,0.5163,0.5172,0.5179,0.5184,0.3622,0.3681,0.3987,0.4071,0.421,0.4443,0.4609,0.5007,0.5213,0.5722,0.5832,0.6256,0.6524,0.6797,0.6687,0.6759,0.7108,0.615,0.5909,0.6677,0.6629,0.6616,0.6602,0.5321,0.5303,0.5289,0.5278,0,0.3726,0.392,0.4075,0.4411,0.4499,0.4633,0.4977,0.5158,0.5491,0.5761,0.5878,0.6321,0.6664,0.692,0.7231,0.7066,0.7171,0.7103,0.6439,0.6316,0.6669,0.6643,0.6784,0.6774,0.6765,0.6757,0.6751,0,0.3953,0.4045,0.4358,0.4423,0.4591,0.4881,0.5087,0.5336,0.5673,0.5879,0.6189,0.6376,0.6702,0.6917,0.7035,0.7052,0.7296,0.6907,0.687,0.6359,0.628,0.7031,0.6996,0.7323,0.7322,0.7321,0.732,0,0.4038,0.4301,0.4419,0.4517,0.4842,0.4966,0.5155,0.5499,0.5658,0.6031,0.615,0.6485,0.6612,0.6805,0.6956,0.6905,0.7212,0.7135,0.6859,0.6832,0.6316,0.623,0.7319,0.7319,0.7319,0.7318,0.7318,0,0.4209,0.4349,0.4504,0.478,0.4844,0.4971,0.5285,0.5462,0.5795,0.5939,0.6172,0.6292,0.655,0.6494,0.6791,0.6716,0.6768,0.681,0.6816,0.6442,0.6299,0.5855,0.5924,0.6789,0.6785,0.6782,0.6778,0,0.4236,0.4409,0.4551,0.4725,0.4835,0.5035,0.5216,0.5429,0.5609,0.581,0.5969,0.6141,0.6156,0.6242,0.639,0.6487,0.6605,0.6472,0.6587,0.6588,0.6253,0.6445,0.5851,0.59,0.6731,0.6736,0.6739,0,0.4242,0.4508,0.4523,0.4624,0.4851,0.4933,0.5136,0.5337,0.548,0.5631,0.5808,0.5995,0.6053,0.6112,0.6159,0.6284,0.6512,0.6251,0.6253,0.6286,0.6765,0.6417,0.6416,0.6548,0.6555,0.656,0.6702,0,0.4393,0.4492,0.4537,0.4702,0.4808,0.4899,0.5066,0.5183,0.5275,0.5384,0.5582,0.5661,0.5799,0.5845,0.586,0.609,0.604,0.6011,0.593,0.6115,0.6142,0.6173,0.5755,0.5751,0.5748,0.5745,0,0,0.4349,0.445,0.4548,0.4642,0.473,0.4834,0.4919,0.5026,0.5154,0.524,0.5225,0.5444,0.5473,0.5669,0.5756,0.5746,0.5784,0.573,0.6007,0.6036,0.6063,0.6101,0.6133,0.574,0.5739,0.5737,0.5736,0,0.4384,0.4472,0.4522,0.462,0.4751,0.4824,0.4852,0.4971,0.5045,0.5165,0.5198,0.5304,0.5383,0.5474,0.552,0.569,0.5655,0.5705,0.5844,0.5975,0.6008,0.6038,0.6082,0.6114,0.5729,0.5729,0.5729,0,0.4393,0.4474,0.4508,0.4636,0.4715,0.4809,0.4818,0.4907,0.5001,0.4976,0.5102,0.5143,0.5189,0.5315,0.5359,0.5313,0.5542,0.5442,0.5459,0.5459,0.5589,0.5627,0.5661,0.522,0.5219,0.5218,0,0,0.4411,0.4475,0.4589,0.4647,0.4697,0.4789,0.4836,0.4888,0.4958,0.499,0.5024,0.5076,0.515,0.5185,0.5224,0.5313,0.5317,0.5384,0.5408,0.5428,0.544,0.5573,0.561,0.5213,0.5213,0.5212,0,0,0.4411,0.4534,0.4578,0.4645,0.4737,0.4831,0.4875,0.4911,0.498,0.499,0.4997,0.5004,0.5105,0.5086,0.5024,0.5218,0.5115,0.5127,0.5247,0.5276,0.5299,0.5307,0.4969,0,0,0,0,0,0.4489,0.4519,0.4559,0.4584,0.4721,0.4817,0.4836,0.4902,0.4908,0.4944,0.4993,0.495,0.5084,0.5029,0.5029,0.5128,0.5149,0.516,0.5171,0.5344,0.5375,0.5401,0,0,0,0,0,0,0.4499,0.4528,0.4558,0.4652,0.4684,0.4815,0.4824,0.4843,0.4906,0.4912,0.4949,0.4951,0.4955,0.5024,0.5026,0.5122,0.4968,0.5153,0.5163,0.5172,0.5354,0.538,0.5402,0,0,0,0,0,0.4508,0.4531,0.4735,0.4652,0.468,0.4779,0.4823,0.4839,0.4891,0.4916,0.4923,0.4941,0.4955,0.4957,0.5025,0.5124,0.4967,0.4968,0.516,0.5167,0.5174,0.5367,0,0,0,0,0,0,0.4514,0.4541,0.4742,0.4753,0.4646,0.4774,0.4795,0.4836,0.489,0.49,0.4904,0.4907,0.4955,0.4956,0.4958,0.513,0.4966,0.4966,0.4967,0.5165,0.5171,0.5177,0,0,0,0,0,0,0.4529,0.455,0.4747,0.4737,0.4747,0.4769,0.4788,0.4796,0.4886,0.4873,0.488,0.4904,0.4924,0.4956,0.4957,0.497,0.4965,0.4966,0.4966,0.4966,0.517,0.5175,0,0,0,0,0,0,0.4539,0.4557,0.4734,0.4742,0.4751,0.4879,0.4773,0.4891,0.494,0.4866,0.494,0.494,0.4921,0.4925,0.4957,0.4969,0.497,0.4965,0.4965,0.4966,0.4966,0,0,0,0,0,0,0,0.4547,0.4413,0.4679,0.4746,0.4754,0.4858,0.486,0.4863,0.494,0.494,0.494,0.494,0.496,0.4961,0.4962,0.4968,0,0,0.4965,0.4965,0,0,0,0,0,0,0,0,0.4408,0.4412,0.4679,0.4682,0.4684,0.4858,0.486,0.4862,0.494,0.494,0.494,0.494,0.4961,0.4961,0.4962,0,0,0,0,0,0,0,0,0,0,0,0,0,0,0,0.468,0.4682,0,0.4858,0.486,0.4862,0.494,0.494,0.494,0.494,0.4961,0.4961,0.4962,0,0,0,0,0,0,0,0,0,0,0,0,0,0,0,0,0,0,0,0,0,0,0,0,0,0,0,0,0,0,0,0,0,0,0,0,0,0,0,0,0,0,0,0,0,0,0,0,0,0,0,0,0,0,0,0,0,0,0,0,0,0,0,0,0,0,0,0,0]}],[{"header":{"parameterUnit":"kt","parameterCategory":2,"dx":1,"dy":1,"la1":30.253999710083008,"la2":30.299108505249023,"lo1":-89.0895004272461,"lo2":-89.04439544677734,"nx":28,"ny":28,"refTime":"2022-10-05T21:00:00:Z","depth":"2","parameterNumber":3,"parameterNumberName":"V-component_of_CURRENTS"},"data":[0.1261,0.1381,0.1434,0.1723,0.1844,0.2123,0.2303,0.2706,0.2834,0.2842,0.2581,0.2295,0.1331,0.0558,-0.0131,-0.0549,-0.0588,-0.0604,-0.0539,-0.0404,-0.0386,-0.0933,-0.0887,0,0,0,0,0,0.1191,0.1245,0.1385,0.1508,0.1695,0.1708,0.199,0.2219,0.2587,0.263,0.2783,0.1917,0.1359,0.0646,-0.0356,-0.0927,-0.0956,-0.1018,-0.0982,-0.0974,-0.0966,-0.0941,-0.105,-0.1049,-0.1049,-0.1049,0,0,0.1036,0.1113,0.1147,0.1274,0.1398,0.159,0.1746,0.1938,0.219,0.2402,0.2343,0.2273,0.1538,0.056,0.005,-0.0585,-0.0638,-0.094,-0.0935,-0.0929,-0.0906,-0.0875,-0.1003,-0.1003,-0.1002,-0.1002,-0.1002,0,0.0872,0.0867,0.0925,0.1027,0.1123,0.1269,0.1382,0.1516,0.1588,0.1741,0.1928,0.1959,0.1472,0.0958,0.0237,-0.013,-0.0593,-0.071,-0.0588,-0.0807,-0.0773,-0.0834,-0.0826,-0.0886,-0.0885,-0.0885,-0.0884,-0.0884,0.065,0.0706,0.0739,0.0804,0.0813,0.0922,0.1016,0.1033,0.1162,0.126,0.137,0.1281,0.1315,0.0836,0.0221,-0.0276,-0.0316,-0.0667,-0.0817,-0.0709,-0.0773,-0.0767,-0.0762,-0.0873,-0.0875,-0.0876,-0.0877,0,0.0545,0.0482,0.058,0.0587,0.0606,0.0708,0.0791,0.0907,0.0907,0.1069,0.1078,0.0991,0.0856,0.054,0.0217,-0.0126,-0.0416,-0.0542,-0.051,-0.0575,-0.0756,-0.0752,-0.0811,-0.0813,-0.0814,-0.0815,-0.0816,0,0.0336,0.0412,0.0351,0.0392,0.0531,0.0481,0.0632,0.0638,0.0682,0.0812,0.0637,0.0717,0.0403,0.0276,-0.0014,-0.0288,-0.0255,-0.0599,-0.0669,-0.0679,-0.0684,-0.0669,-0.0674,-0.0612,-0.0612,-0.0611,-0.061,0,0.0182,0.02,0.027,0.0276,0.0285,0.0336,0.0354,0.0369,0.0441,0.0439,0.0485,0.038,0.0371,0.013,-0.0103,-0.0169,-0.031,-0.0444,-0.0645,-0.065,-0.0733,-0.0744,-0.0609,-0.0609,-0.0609,-0.0609,-0.0608,0,0.001,0.0001,0.0074,0.0115,0.0132,0.0169,0.0257,0.0282,0.0271,0.0264,0.0232,0.0148,0.0114,-0.0028,-0.0202,-0.0178,-0.0358,-0.0474,-0.0483,-0.0559,-0.067,-0.0762,-0.0721,-0.0623,-0.0622,-0.0622,-0.0622,0,-0.0098,-0.0084,-0.0147,-0.006,-0.003,-0.0082,-0.0039,-0.0037,-0.0052,-0.0022,-0.0104,-0.0087,-0.021,-0.0198,-0.0264,-0.0369,-0.0434,-0.0396,-0.0632,-0.0637,-0.0659,-0.0601,-0.062,-0.0711,-0.0615,-0.0616,-0.0617,0,-0.0189,-0.0287,-0.0275,-0.0251,-0.0299,-0.0273,-0.0258,-0.023,-0.0175,-0.0257,-0.0188,-0.0248,-0.0296,-0.0314,-0.037,-0.0413,-0.0431,-0.0514,-0.0521,-0.0545,-0.0564,-0.0592,-0.0599,-0.0511,-0.0511,-0.0511,-0.0612,0,-0.0332,-0.0336,-0.0339,-0.0363,-0.0369,-0.0354,-0.0385,-0.0392,-0.0418,-0.0434,-0.0429,-0.051,-0.0523,-0.0536,-0.0582,-0.0547,-0.0604,-0.067,-0.0719,-0.0656,-0.0712,-0.0715,-0.0721,-0.0723,-0.0726,-0.0728,0,0,-0.0369,-0.0386,-0.0471,-0.0476,-0.0466,-0.0539,-0.0497,-0.0527,-0.0573,-0.0561,-0.0617,-0.0662,-0.0718,-0.0679,-0.0653,-0.0707,-0.0763,-0.0691,-0.0687,-0.0681,-0.0677,-0.0726,-0.0726,-0.0732,-0.0733,-0.0734,-0.0734,0,-0.0414,-0.0469,-0.0473,-0.0499,-0.0542,-0.0559,-0.0558,-0.0598,-0.061,-0.0633,-0.0678,-0.0701,-0.0772,-0.0775,-0.0789,-0.0742,-0.082,-0.0755,-0.0643,-0.0705,-0.0696,-0.069,-0.0735,-0.0734,-0.074,-0.074,-0.0739,0,-0.0456,-0.0498,-0.0508,-0.0553,-0.0584,-0.0576,-0.0628,-0.0647,-0.0627,-0.0731,-0.0737,-0.0792,-0.0849,-0.0854,-0.0866,-0.0891,-0.0881,-0.0881,-0.0871,-0.0848,-0.0916,-0.0906,-0.0897,-0.1014,-0.1014,-0.1015,0,0,-0.0481,-0.0512,-0.0548,-0.0557,-0.0573,-0.0616,-0.0634,-0.0654,-0.0697,-0.072,-0.077,-0.082,-0.0849,-0.0871,-0.0919,-0.0936,-0.099,-0.0908,-0.0895,-0.0884,-0.0856,-0.092,-0.091,-0.1016,-0.1016,-0.1016,0,0,-0.0482,-0.0536,-0.0558,-0.057,-0.0597,-0.0638,-0.0655,-0.0675,-0.0727,-0.0737,-0.0803,-0.0822,-0.0846,-0.0899,-0.0907,-0.0903,-0.0964,-0.0965,-0.0848,-0.0834,-0.0821,-0.077,-0.0949,0,0,0,0,0,-0.0529,-0.0529,-0.0549,-0.0556,-0.0608,-0.063,-0.064,-0.0678,-0.0694,-0.0702,-0.076,-0.0793,-0.0905,-0.0915,-0.0934,-0.0882,-0.1031,-0.1029,-0.1026,-0.0882,-0.0866,-0.0852,0,0,0,0,0,0,-0.0531,-0.0538,-0.0549,-0.0587,-0.0599,-0.063,-0.0658,-0.0669,-0.0694,-0.0698,-0.0781,-0.0796,-0.0843,-0.091,-0.0926,-0.0874,-0.0944,-0.103,-0.1028,-0.1026,-0.0877,-0.0863,-0.0852,0,0,0,0,0,-0.0534,-0.0539,-0.0608,-0.0588,-0.0599,-0.0649,-0.0658,-0.0668,-0.0692,-0.0764,-0.0779,-0.0718,-0.0841,-0.0859,-0.092,-0.0864,-0.0933,-0.0939,-0.1029,-0.1027,-0.1025,-0.087,0,0,0,0,0,0,-0.0535,-0.056,-0.0612,-0.0618,-0.0585,-0.0649,-0.0658,-0.0666,-0.0759,-0.0771,-0.0704,-0.0707,-0.0841,-0.0854,-0.0868,-0.0855,-0.0925,-0.093,-0.0934,-0.1027,-0.1026,-0.1025,0,0,0,0,0,0,-0.0557,-0.0564,-0.0615,-0.0609,-0.0614,-0.0648,-0.0657,-0.0716,-0.0761,-0.0695,-0.0699,-0.0704,-0.0828,-0.0851,-0.0862,-0.0953,-0.0918,-0.0924,-0.0927,-0.093,-0.1026,-0.1025,0,0,0,0,0,0,-0.0561,-0.0567,-0.0608,-0.0612,-0.0617,-0.0686,-0.0704,-0.0763,-0.0731,-0.0692,-0.0731,-0.0731,-0.0825,-0.0836,-0.0858,-0.0944,-0.095,-0.0918,-0.0922,-0.0925,-0.0926,0,0,0,0,0,0,0,-0.0565,-0.0507,-0.0574,-0.0614,-0.0619,-0.0669,-0.0671,-0.0673,-0.0731,-0.0731,-0.0731,-0.0731,-0.0886,-0.0892,-0.0898,-0.0936,0,0,-0.0918,-0.092,0,0,0,0,0,0,0,0,-0.0506,-0.0507,-0.0574,-0.0575,-0.0576,-0.0669,-0.0671,-0.0672,-0.0731,-0.0731,-0.0731,-0.0731,-0.0888,-0.0893,-0.0898,0,0,0,0,0,0,0,0,0,0,0,0,0,0,0,-0.0575,-0.0575,0,-0.0669,-0.067,-0.0672,-0.0731,-0.0731,-0.0731,-0.0731,-0.0889,-0.0893,-0.0897,0,0,0,0,0,0,0,0,0,0,0,0,0,0,0,0,0,0,0,0,0,0,0,0,0,0,0,0,0,0,0,0,0,0,0,0,0,0,0,0,0,0,0,0,0,0,0,0,0,0,0,0,0,0,0,0,0,0,0,0,0,0,0,0,0,0,0,0,0]}]],[[{"header":{"parameterUnit":"kt","parameterCategory":2,"dx":1,"dy":1,"la1":30.253999710083008,"la2":30.299108505249023,"lo1":-89.0895004272461,"lo2":-89.04439544677734,"nx":28,"ny":28,"refTime":"2022-10-05T21:00:00:Z","depth":"4","parameterNumber":2,"parameterNumberName":"U-component_of_CURRENTS"},"data":[0.0546,0.0611,0.0643,0.0733,0.0839,0.0998,0.1128,0.1304,0.1325,0.1589,0.1573,0.1835,0.1815,0.1979,0.1872,0.1887,0.1915,0.2038,0.2034,0.2156,0.2172,0.2186,0.2142,0,0,0,0,0,0.0588,0.0618,0.0717,0.0867,0.1026,0.1149,0.1375,0.1494,0.1732,0.177,0.1939,0.1938,0.1971,0.1999,0.1912,0.2049,0.2076,0.1941,0.2035,0.2166,0.2184,0.2134,0,0,0,0,0,0,0.0647,0.0677,0.0795,0.0971,0.1149,0.1273,0.1405,0.1566,0.1713,0.2059,0.205,0.2186,0.2345,0.2265,0.2184,0.2142,0.2121,0.2087,0.2108,0.2125,0.2071,0.2045,0.1865,0,0,0,0,0,0.0724,0.0793,0.0884,0.1082,0.1246,0.1411,0.166,0.1706,0.2007,0.2211,0.2315,0.2383,0.2387,0.2364,0.2331,0.224,0.2391,0.2311,0.232,0.2314,0.2313,0.2295,0.2306,0.225,0.2253,0.2254,0.2255,0,0.0821,0.0867,0.1085,0.1182,0.1303,0.1537,0.1686,0.1962,0.2071,0.2369,0.2415,0.2577,0.2648,0.2481,0.251,0.2415,0.2377,0.2357,0.2351,0.2342,0.2318,0.2325,0.233,0.2269,0.2268,0.2267,0.2266,0,0.0864,0.098,0.1089,0.1315,0.1417,0.1558,0.1853,0.1975,0.2211,0.2388,0.2489,0.2673,0.2694,0.2722,0.2694,0.2621,0.2517,0.2451,0.2622,0.2601,0.2356,0.2356,0.2292,0.2287,0.2283,0.2279,0.2276,0,0.096,0.1042,0.1238,0.1293,0.1452,0.1629,0.1807,0.1975,0.2199,0.2359,0.2554,0.2591,0.2719,0.2738,0.2705,0.2605,0.2676,0.2501,0.2469,0.262,0.2619,0.2534,0.2524,0.2628,0.2628,0.2628,0.2628,0,0.0981,0.1146,0.1237,0.13,0.1498,0.1598,0.1763,0.1988,0.2116,0.2356,0.2449,0.2589,0.2681,0.2669,0.2692,0.2713,0.2666,0.2658,0.2497,0.2489,0.2531,0.252,0.2628,0.2628,0.2628,0.2628,0.2628,0,0.1047,0.1135,0.1238,0.1415,0.1455,0.1562,0.1768,0.1901,0.2138,0.2229,0.239,0.2481,0.2629,0.2582,0.2637,0.2667,0.2667,0.2639,0.2637,0.2421,0.2371,0.2402,0.2605,0.2605,0.2605,0.2605,0.2605,0,0.1045,0.1152,0.123,0.1358,0.1426,0.1563,0.1665,0.1844,0.1978,0.2133,0.2231,0.2364,0.2398,0.2498,0.2543,0.2558,0.26,0.2598,0.2515,0.2511,0.2313,0.2455,0.2611,0.2604,0.2604,0.2604,0.2604,0,0.1038,0.1185,0.1203,0.128,0.1436,0.1497,0.1613,0.1782,0.1896,0.2028,0.2157,0.2269,0.2355,0.2388,0.2454,0.2497,0.2592,0.252,0.2515,0.2453,0.2611,0.2472,0.2459,0.2609,0.2609,0.261,0.2603,0,0.1108,0.1184,0.12,0.1326,0.1394,0.1471,0.1587,0.1686,0.1792,0.191,0.204,0.2065,0.218,0.2235,0.2282,0.2404,0.2401,0.2357,0.226,0.2421,0.2407,0.2409,0.2337,0.2333,0.233,0.2328,0,0,0.1094,0.117,0.1238,0.1295,0.1365,0.1478,0.154,0.1606,0.1739,0.1825,0.182,0.1968,0.1972,0.209,0.2207,0.2214,0.2223,0.2223,0.2382,0.2389,0.2395,0.2387,0.2392,0.2322,0.2321,0.232,0.2319,0,0.1113,0.1189,0.1222,0.1293,0.1408,0.1463,0.1505,0.1607,0.1661,0.1773,0.1792,0.1879,0.1938,0.1971,0.1993,0.2174,0.2073,0.2236,0.2372,0.2359,0.237,0.2379,0.2374,0.2381,0.2312,0.2313,0.2313,0,0.1137,0.1208,0.1239,0.1342,0.1389,0.145,0.1481,0.1555,0.1626,0.1611,0.1703,0.1729,0.1742,0.1833,0.187,0.185,0.1974,0.1955,0.1974,0.1915,0.189,0.1907,0.1921,0.1711,0.1708,0.1707,0,0,0.1154,0.1206,0.1305,0.1351,0.1382,0.1461,0.1499,0.1553,0.1608,0.1633,0.1645,0.1685,0.1706,0.1749,0.1725,0.1822,0.1748,0.1882,0.191,0.1933,0.1889,0.1871,0.1889,0.1699,0.1699,0.1698,0,0,0.1145,0.1253,0.1308,0.1357,0.1431,0.1481,0.15,0.156,0.161,0.1632,0.1598,0.1594,0.1653,0.1646,0.1556,0.172,0.1608,0.1623,0.172,0.1754,0.1782,0.1721,0.1421,0,0,0,0,0,0.1228,0.1244,0.1295,0.1318,0.1413,0.1469,0.148,0.1526,0.1561,0.1579,0.1627,0.1533,0.1625,0.1543,0.1528,0.1599,0.1599,0.1617,0.1633,0.1773,0.181,0.1842,0,0,0,0,0,0,0.1237,0.1261,0.1294,0.1348,0.1372,0.1467,0.1473,0.1483,0.1559,0.1564,0.1538,0.1529,0.1478,0.1541,0.153,0.1601,0.1424,0.1606,0.1621,0.1634,0.1786,0.1816,0.1843,0,0,0,0,0,0.1244,0.1264,0.1411,0.1347,0.1367,0.1442,0.1472,0.1481,0.1536,0.1495,0.1492,0.1581,0.1478,0.1468,0.1533,0.1609,0.1431,0.1428,0.1616,0.1628,0.1638,0.1801,0,0,0,0,0,0,0.125,0.1243,0.1416,0.1424,0.1354,0.1437,0.1451,0.1479,0.146,0.1464,0.1527,0.153,0.1477,0.147,0.1462,0.1621,0.1437,0.1433,0.1431,0.1625,0.1634,0.1642,0,0,0,0,0,0,0.1235,0.1249,0.1419,0.1426,0.1434,0.1432,0.1445,0.1405,0.1455,0.1488,0.1494,0.1528,0.1469,0.1471,0.1465,0.1402,0.1441,0.1437,0.1435,0.1433,0.1632,0.164,0,0,0,0,0,0,0.1241,0.1253,0.1423,0.1429,0.1437,0.1517,0.1392,0.1467,0.1534,0.1484,0.1537,0.1538,0.1469,0.1464,0.1467,0.1407,0.1403,0.1441,0.1438,0.1437,0.1435,0,0,0,0,0,0,0,0.1247,0.1157,0.1387,0.1432,0.1438,0.1502,0.1502,0.1502,0.1534,0.1535,0.1536,0.1537,0.1461,0.1457,0.1453,0.141,0,0,0.1441,0.1439,0,0,0,0,0,0,0,0,0.1153,0.1156,0.1388,0.139,0.1393,0.1502,0.1502,0.1502,0.1535,0.1535,0.1536,0.1537,0.146,0.1457,0.1454,0,0,0,0,0,0,0,0,0,0,0,0,0,0,0,0.1388,0.139,0,0.1502,0.1502,0.1502,0.1535,0.1535,0.1536,0.1537,0.1459,0.1456,0.1454,0,0,0,0,0,0,0,0,0,0,0,0,0,0,0,0,0,0,0,0,0,0,0,0,0,0,0,0,0,0,0,0,0,0,0,0,0,0,0,0,0,0,0,0,0,0,0,0,0,0,0,0,0,0,0,0,0,0,0,0,0,0,0,0,0,0,0,0,0]}],[{"header":{"parameterUnit":"kt","parameterCategory":2,"dx":1,"dy":1,"la1":30.253999710083008,"la2":30.299108505249023,"lo1":-89.0895004272461,"lo2":-89.04439544677734,"nx":28,"ny":28,"refTime":"2022-10-05T21:00:00:Z","depth":"4","parameterNumber":3,"parameterNumberName":"V-component_of_CURRENTS"},"data":[0.0532,0.0582,0.0602,0.0652,0.0697,0.0775,0.0825,0.0841,0.0792,0.0762,0.0532,0.0468,0.0048,0.0202,-0.0342,-0.0416,-0.049,-0.0912,-0.0914,-0.1042,-0.1043,-0.1045,-0.0953,0,0,0,0,0,0.055,0.0574,0.0622,0.0681,0.0756,0.0796,0.0864,0.0884,0.0879,0.0805,0.0745,0.0486,0.0096,-0.0117,-0.0335,-0.0465,-0.0784,-0.0722,-0.082,-0.1043,-0.1045,-0.0955,0,0,0,0,0,0,0.0566,0.0588,0.0647,0.0702,0.0769,0.0822,0.0842,0.0829,0.0819,0.0722,0.0667,0.0352,0.0159,-0.0213,-0.0452,-0.0677,-0.0733,-0.0754,-0.0772,-0.0777,-0.0662,-0.0538,-0.0558,0,0,0,0,0,0.0575,0.0612,0.0639,0.0716,0.0755,0.0797,0.0814,0.0824,0.0776,0.0728,0.0576,0.0345,0.0066,-0.0288,-0.0533,-0.077,-0.0959,-0.1007,-0.101,-0.1004,-0.094,-0.0964,-0.0954,-0.1052,-0.1052,-0.1053,-0.1053,0,0.0582,0.0613,0.0667,0.0696,0.0699,0.0721,0.0731,0.0682,0.0669,0.0545,0.0519,0.0272,0.0085,-0.0301,-0.0585,-0.0913,-0.0944,-0.1011,-0.1004,-0.0941,-0.0967,-0.0957,-0.0946,-0.1054,-0.1054,-0.1054,-0.1054,0,0.058,0.0602,0.063,0.0631,0.0641,0.0649,0.0635,0.0613,0.0531,0.0477,0.0437,0.0189,-0.0061,-0.0318,-0.0625,-0.0727,-0.0935,-0.0981,-0.0905,-0.0937,-0.0956,-0.0944,-0.1057,-0.1056,-0.1056,-0.1055,-0.1055,0,0.0558,0.0576,0.0596,0.0601,0.0618,0.0569,0.0552,0.0478,0.0389,0.0347,0.0162,0.0074,-0.0209,-0.0386,-0.0568,-0.0764,-0.0809,-0.0887,-0.0924,-0.0894,-0.0884,-0.0885,-0.0872,-0.0982,-0.0981,-0.0981,-0.098,0,0.0522,0.0532,0.0565,0.0554,0.0508,0.0498,0.0467,0.0349,0.0317,0.0161,0.0111,-0.0098,-0.0188,-0.037,-0.0574,-0.0581,-0.0815,-0.0846,-0.0894,-0.0891,-0.0875,-0.0864,-0.0979,-0.0979,-0.0978,-0.0978,-0.0978,0,0.0468,0.0476,0.0509,0.0472,0.0466,0.0451,0.0371,0.0334,0.0186,0.0116,-0.0009,-0.0117,-0.0277,-0.0313,-0.055,-0.0513,-0.0622,-0.0721,-0.0728,-0.0662,-0.0686,-0.0693,-0.0815,-0.0813,-0.0812,-0.081,-0.0809,0,0.0426,0.0447,0.0414,0.0418,0.0418,0.0341,0.0303,0.0222,0.014,0.0053,-0.0081,-0.0169,-0.0237,-0.03,-0.0405,-0.0543,-0.0625,-0.0555,-0.0708,-0.0711,-0.0637,-0.0737,-0.0665,-0.0786,-0.0788,-0.0791,-0.0792,0,0.0379,0.0351,0.0355,0.035,0.0291,0.0275,0.0231,0.0164,0.0119,0.0026,-0.0041,-0.0175,-0.0243,-0.029,-0.0383,-0.0474,-0.0591,-0.0514,-0.0517,-0.0531,-0.0763,-0.0715,-0.0724,-0.0654,-0.0656,-0.0658,-0.0776,0,0.0312,0.0311,0.0314,0.0287,0.0262,0.0251,0.0185,0.0145,0.0091,0.003,-0.0071,-0.0162,-0.0248,-0.0306,-0.0352,-0.0459,-0.0468,-0.0488,-0.0453,-0.053,-0.0574,-0.0587,-0.0422,-0.0421,-0.042,-0.042,0,0,0.0275,0.0275,0.0231,0.0229,0.0211,0.0142,0.0146,0.0102,0.0035,-0.0003,-0.0011,-0.0161,-0.0203,-0.0309,-0.0349,-0.0383,-0.0425,-0.0351,-0.0498,-0.0507,-0.0515,-0.056,-0.0573,-0.0418,-0.0418,-0.0418,-0.0417,0,0.0249,0.0222,0.0234,0.0204,0.0163,0.0131,0.0122,0.0072,0.0049,-0.0009,-0.0055,-0.0131,-0.0192,-0.0247,-0.0283,-0.037,-0.0365,-0.0396,-0.0407,-0.049,-0.05,-0.0509,-0.0555,-0.0567,-0.0415,-0.0416,-0.0416,0,0.0211,0.0186,0.0184,0.0148,0.0124,0.0111,0.0079,0.0058,0.0038,-0.0002,-0.0034,-0.0089,-0.0143,-0.0204,-0.0229,-0.0218,-0.0326,-0.0285,-0.0291,-0.0246,-0.0328,-0.034,-0.0351,-0.0205,-0.0204,-0.0203,0,0,0.0194,0.0188,0.0143,0.014,0.0128,0.0083,0.0066,0.0049,0.0009,-0.0003,-0.0027,-0.007,-0.012,-0.0144,-0.0168,-0.0231,-0.0239,-0.0258,-0.0268,-0.0276,-0.0237,-0.0319,-0.0332,-0.02,-0.02,-0.02,0,0,0.0188,0.0148,0.013,0.0129,0.0096,0.0055,0.0055,0.0026,-0.0008,-0.0009,-0.0029,-0.0034,-0.0082,-0.0096,-0.0054,-0.0155,-0.0118,-0.0126,-0.0139,-0.0151,-0.0161,-0.0101,-0.0009,0,0,0,0,0,0.0138,0.0148,0.0132,0.0125,0.0085,0.0054,0.0048,0.0034,0.0021,0.0024,-0.002,0.001,-0.0086,-0.0049,-0.0053,-0.0081,-0.0157,-0.0165,-0.0172,-0.0201,-0.0214,-0.0226,0,0,0,0,0,0,0.0135,0.0129,0.0131,0.0091,0.0081,0.0055,0.005,0.0046,0.0023,0.0024,0.001,0.001,0.0011,-0.0044,-0.0049,-0.0076,-0.0008,-0.016,-0.0167,-0.0173,-0.0206,-0.0217,-0.0226,0,0,0,0,0,0.0133,0.0127,0.0074,0.009,0.0081,0.0054,0.0052,0.0048,0.0035,0.002,0.0019,0.0026,0.001,0.0006,-0.0047,-0.0074,-0.0004,-0.0006,-0.0165,-0.017,-0.0174,-0.0211,0,0,0,0,0,0,0.0131,0.0124,0.0071,0.0066,0.0103,0.0056,0.0052,0.0051,0.0032,0.003,0.0036,0.0038,0.0009,0.0006,0.0003,-0.0075,-0.0001,-0.0003,-0.0004,-0.0168,-0.0172,-0.0176,0,0,0,0,0,0,0.0126,0.0121,0.0069,0.0086,0.0084,0.0059,0.0055,0.0031,0.0033,0.0051,0.0051,0.0037,0.002,0.0006,0.0004,-0.0033,0.0001,-0.0001,-0.0002,-0.0003,-0.0172,-0.0175,0,0,0,0,0,0,0.0123,0.0118,0.0088,0.0086,0.0083,0.0033,0.0038,0.0005,0.0029,0.0053,0.0032,0.0033,0.002,0.0017,0.0004,-0.0032,-0.0033,0.0001,-0.0,-0.0001,-0.0002,0,0,0,0,0,0,0,0.012,0.0163,0.0094,0.0085,0.0083,0.0022,0.0021,0.0021,0.0029,0.003,0.0031,0.0033,0.0011,0.0009,0.0007,-0.0031,0,0,0.0001,0.0,0,0,0,0,0,0,0,0,0.0164,0.0164,0.0094,0.0093,0.0092,0.0022,0.0021,0.0021,0.0029,0.003,0.0031,0.0032,0.0011,0.0009,0.0008,0,0,0,0,0,0,0,0,0,0,0,0,0,0,0,0.0094,0.0093,0,0.0022,0.0021,0.0021,0.0029,0.003,0.0031,0.0032,0.001,0.0009,0.0008,0,0,0,0,0,0,0,0,0,0,0,0,0,0,0,0,0,0,0,0,0,0,0,0,0,0,0,0,0,0,0,0,0,0,0,0,0,0,0,0,0,0,0,0,0,0,0,0,0,0,0,0,0,0,0,0,0,0,0,0,0,0,0,0,0,0,0,0,0]}]]]